Weather History for Council Bluffs, IA

Change the Weather History Date:

Tuesday, February 12, 2013

  Actual Average Record
Temperature  
Mean Temperature 34 °F -  
Max Temperature 46 °F 36 °F 46 °F (1998)
Min Temperature 21 °F 21 °F 0 °F (2012)
Degree Days  
Heating Degree Days 32    
Moisture  
Dew Point 22 °F    
Average Humidity 67    
Maximum Humidity 93    
Minimum Humidity 40    
Precipitation  
Precipitation 0.00 in - - ()
Sea Level Pressure  
Sea Level Pressure 30.00 in    
Wind  
Wind Speed 7 mph (SW)    
Max Wind Speed 16 mph    
Max Gust Speed 24 mph    
Visibility 10 miles    
Events      
Averages and records for this station are not official NWS values.
T = Trace of Precipitation, MM = Missing Value Source: NWS Daily Summary

Daily Weather History Graph

Daily Weather History Graph

Search for Another Location

Airport:

Trip Planner

Search our weather history database for the weather conditions in past years. The results will help you decide how hot, cold, wet, or windy it might be!

Date:

Astronomy

Feb. 12, 2013 Rise Set
Actual Time 7:21 AM CST 5:53 PM CST
Civil Twilight 6:52 AM CST 6:22 PM CST
Nautical Twilight 6:20 AM CST 6:54 PM CST
Astronomical Twilight 5:48 AM CST 7:26 PM CST
Moon 8:16 AM CST (2/12) 8:58 PM CST (2/12)
Length of Visible Light 11h 29m
Length of Day
10h 32m
Waxing Crescent, 7% of the Moon is Illuminated
Feb 12
Waxing Crescent
Feb 17
First Quarter
Feb 25
Full
Mar 4
Last Quarter
Mar 11
New

Hourly Weather History & Observations

Time (CST) Temp. Windchill Dew Point Humidity Pressure Visibility Wind Dir Wind Speed Gust Speed Precip Events Conditions
12:15 AM 24.8 °F 17.9 °F 21.2 °F 86% 30.14 in 10.0 mi SW 5.8 mph - N/A   Clear
12:35 AM 24.8 °F 20.5 °F 21.2 °F 86% 30.14 in 10.0 mi SW 3.5 mph - N/A   Clear
12:55 AM 24.8 °F 19.1 °F 21.2 °F 86% 30.14 in 10.0 mi SW 4.6 mph - N/A   Clear
1:15 AM 24.8 °F 20.5 °F 21.2 °F 86% 30.13 in 10.0 mi WSW 3.5 mph - N/A   Clear
1:35 AM 24.8 °F 19.1 °F 21.2 °F 86% 30.13 in 10.0 mi WSW 4.6 mph - N/A   Clear
1:55 AM 24.8 °F 19.1 °F 21.2 °F 86% 30.14 in 10.0 mi WSW 4.6 mph - N/A   Clear
2:15 AM 24.8 °F 20.5 °F 21.2 °F 86% 30.13 in 10.0 mi SW 3.5 mph - N/A   Partly Cloudy
2:35 AM 23.0 °F 18.4 °F 21.2 °F 93% 30.12 in 10.0 mi SSW 3.5 mph - N/A   Scattered Clouds
2:55 AM 23.0 °F - 21.2 °F 93% 30.11 in 9.0 mi Calm Calm - N/A   Clear
3:15 AM 23.0 °F 18.4 °F 21.2 °F 93% 30.10 in 10.0 mi South 3.5 mph - N/A   Clear
3:35 AM 21.2 °F 12.6 °F 19.4 °F 93% 30.10 in 8.0 mi South 6.9 mph - N/A   Clear
3:55 AM 21.2 °F 14.9 °F 19.4 °F 93% 30.08 in 7.0 mi South 4.6 mph - N/A   Clear
4:15 AM 23.0 °F - 21.2 °F 93% 30.07 in 10.0 mi Calm Calm - N/A   Clear
4:35 AM 23.0 °F 17.0 °F 19.4 °F 86% 30.08 in 9.0 mi SSW 4.6 mph - N/A   Clear
4:55 AM 21.2 °F 12.6 °F 19.4 °F 93% 30.08 in 7.0 mi South 6.9 mph - N/A   Clear
5:15 AM 21.2 °F 12.6 °F 19.4 °F 93% 30.09 in 7.0 mi South 6.9 mph - N/A   Clear
5:35 AM 21.2 °F 13.6 °F 19.4 °F 93% 30.09 in 7.0 mi South 5.8 mph - N/A   Clear
5:55 AM 21.2 °F 11.7 °F 19.4 °F 93% 30.08 in 8.0 mi South 8.1 mph - N/A   Clear
6:15 AM 23.0 °F 13.9 °F 21.2 °F 93% 30.09 in 10.0 mi SSW 8.1 mph - N/A   Clear
6:35 AM 23.0 °F 13.9 °F 21.2 °F 93% 30.08 in 10.0 mi SSW 8.1 mph - N/A   Clear
6:55 AM 23.0 °F 13.9 °F 21.2 °F 93% 30.08 in 10.0 mi SSW 8.1 mph - N/A   Clear
7:15 AM 23.0 °F 13.9 °F 21.2 °F 93% 30.08 in 10.0 mi SSW 8.1 mph - N/A   Clear
7:35 AM 24.8 °F 14.6 °F 21.2 °F 86% 30.07 in 9.0 mi SSW 10.4 mph - N/A   Clear
7:55 AM 24.8 °F 16.1 °F 21.2 °F 86% 30.05 in 9.0 mi SSW 8.1 mph - N/A   Clear
8:15 AM 24.8 °F 16.1 °F 21.2 °F 86% 30.04 in 9.0 mi SSW 8.1 mph - N/A   Clear
8:35 AM 26.6 °F 17.5 °F 23.0 °F 86% 30.04 in 9.0 mi SSW 9.2 mph - N/A   Clear
8:55 AM 26.6 °F 16.2 °F 23.0 °F 86% 30.04 in 10.0 mi SSW 11.5 mph - N/A   Clear
9:15 AM 28.4 °F 18.5 °F 24.8 °F 86% 30.04 in 10.0 mi South 11.5 mph 18.4 mph N/A   Clear
9:35 AM 30.2 °F 19.8 °F 24.8 °F 80% 30.05 in 10.0 mi SSW 13.8 mph - N/A   Clear
9:55 AM 32.0 °F 24.2 °F 24.8 °F 75% 30.04 in 10.0 mi SW 9.2 mph - N/A   Clear
10:15 AM 32.0 °F 23.6 °F 26.6 °F 80% 30.03 in 10.0 mi SW 10.4 mph - N/A   Clear
10:35 AM 33.8 °F 23.9 °F 26.6 °F 75% 30.04 in 10.0 mi SW 15.0 mph - N/A   Clear
10:55 AM 35.6 °F 25.9 °F 24.8 °F 65% 30.04 in 10.0 mi SW 16.1 mph - N/A   Clear
11:15 AM 37.4 °F 29.3 °F 23.0 °F 56% 30.04 in 10.0 mi SW 12.7 mph - N/A   Clear
11:35 AM 39.2 °F 32.0 °F 24.8 °F 56% 30.04 in 10.0 mi WSW 11.5 mph - N/A   Clear
11:55 AM 41.0 °F 34.3 °F 23.0 °F 49% 30.03 in 10.0 mi WSW 11.5 mph 20.7 mph N/A   Clear
12:15 PM 41.0 °F 33.5 °F 23.0 °F 49% 30.01 in 10.0 mi SW 13.8 mph - N/A   Clear
12:35 PM 42.8 °F 35.1 °F 23.0 °F 46% 29.99 in 10.0 mi WSW 16.1 mph 24.2 mph N/A   Clear
12:55 PM 44.6 °F 38.1 °F 23.0 °F 43% 29.98 in 10.0 mi WSW 13.8 mph - N/A   Clear
1:15 PM 42.8 °F 36.6 °F 23.0 °F 46% 29.96 in 10.0 mi WSW 11.5 mph 18.4 mph N/A   Clear
1:35 PM 44.6 °F 39.7 °F 23.0 °F 43% 29.95 in 10.0 mi West 9.2 mph 19.6 mph N/A   Clear
1:55 PM 44.6 °F 38.1 °F 23.0 °F 43% 29.95 in 10.0 mi WSW 13.8 mph - N/A   Clear
2:15 PM 44.6 °F 37.8 °F 23.0 °F 43% 29.94 in 10.0 mi West 15.0 mph - N/A   Clear
2:35 PM 46.4 °F 40.7 °F 23.0 °F 40% 29.93 in 10.0 mi WSW 12.7 mph 18.4 mph N/A   Clear
2:55 PM 46.4 °F 40.7 °F 23.0 °F 40% 29.92 in 10.0 mi WSW 12.7 mph 20.7 mph N/A   Clear
3:15 PM 46.4 °F 40.4 °F 23.0 °F 40% 29.91 in 10.0 mi SW 13.8 mph 19.6 mph N/A   Clear
3:35 PM 46.4 °F 41.1 °F 23.0 °F 40% 29.91 in 10.0 mi WSW 11.5 mph - N/A   Clear
3:55 PM 46.4 °F 40.7 °F 23.0 °F 40% 29.91 in 10.0 mi WSW 12.7 mph - N/A   Clear
4:15 PM 46.4 °F 41.9 °F 23.0 °F 40% 29.91 in 10.0 mi WSW 9.2 mph 17.3 mph N/A   Clear
4:35 PM 46.4 °F 41.1 °F 24.8 °F 43% 29.90 in 10.0 mi SW 11.5 mph - N/A   Clear
4:55 PM 46.4 °F 42.4 °F 23.0 °F 40% 29.90 in 10.0 mi WSW 8.1 mph 15.0 mph N/A   Clear
5:15 PM 44.6 °F 39.2 °F 23.0 °F 43% 29.89 in 10.0 mi WSW 10.4 mph - N/A   Clear
5:35 PM 44.6 °F 41.4 °F 23.0 °F 43% 29.89 in 10.0 mi SW 5.8 mph - N/A   Clear
5:55 PM 42.8 °F 38.6 °F 23.0 °F 46% 29.89 in 10.0 mi SW 6.9 mph - N/A   Clear
6:15 PM 41.0 °F 36.4 °F 23.0 °F 49% 29.89 in 10.0 mi SW 6.9 mph - N/A   Clear
6:35 PM 41.0 °F 37.1 °F 23.0 °F 49% 29.89 in 10.0 mi SSW 5.8 mph - N/A   Clear
6:55 PM 41.0 °F 35.8 °F 23.0 °F 49% 29.89 in 10.0 mi SW 8.1 mph - N/A   Clear
7:15 PM 41.0 °F 35.8 °F 23.0 °F 49% 29.89 in 10.0 mi SW 8.1 mph - N/A   Clear
7:35 PM 37.4 °F 33.8 °F 23.0 °F 56% 29.89 in 10.0 mi West 4.6 mph - N/A   Clear
8:15 PM 37.4 °F 32.8 °F 21.2 °F 52% 29.90 in 10.0 mi NW 5.8 mph - N/A   Clear
8:35 PM 37.4 °F 31.4 °F 17.6 °F 45% 29.90 in 10.0 mi NNW 8.1 mph - N/A   Clear
8:55 PM 37.4 °F 30.3 °F 19.4 °F 48% 29.90 in 10.0 mi NNW 10.4 mph - N/A   Clear
9:15 PM 35.6 °F 28.6 °F 21.2 °F 56% 29.90 in 10.0 mi NNW 9.2 mph 15.0 mph N/A   Clear
9:35 PM 35.6 °F 28.0 °F 23.0 °F 60% 29.91 in 10.0 mi NNW 10.4 mph - N/A   Clear
9:55 PM 33.8 °F 27.7 °F 23.0 °F 65% 29.91 in 10.0 mi NNW 6.9 mph - N/A   Clear
10:15 PM 32.0 °F 26.4 °F 23.0 °F 69% 29.91 in 10.0 mi NNW 5.8 mph - N/A   Clear
10:35 PM 32.0 °F 24.8 °F 23.0 °F 69% 29.90 in 10.0 mi NNW 8.1 mph - N/A   Clear
10:55 PM 32.0 °F 25.6 °F 23.0 °F 69% 29.90 in 10.0 mi NW 6.9 mph - N/A   Clear
11:15 PM 33.8 °F 29.6 °F 23.0 °F 65% 29.89 in 10.0 mi NW 4.6 mph - N/A   Clear
11:35 PM 33.8 °F 28.6 °F 23.0 °F 65% 29.89 in 10.0 mi WNW 5.8 mph - N/A   Clear
11:55 PM 33.8 °F 29.6 °F 23.0 °F 65% 29.89 in 10.0 mi WNW 4.6 mph - N/A   Clear